Starlink 31659

operational
NORAD ID: 59254 Int'l Des: 2024-050 Owner: SPXS Country: US Constellation: starlink
LEOCIRCULAR

Über Starlink 31659

Beschreibung wird geladen...

Live-Position

3D-Globus wird geladen...

Nächste Überflüge

Höhenverlauf

Altitude vs Time

uPlot chart will show altitude changes over time

Zweizeiliger Elementsatz

1 59254U 24050A 25259.32801302 .00000339 00000-0 23589-4 0 9994
2 59254 53.1585 268.7130 0001094 84.2914 275.8212 15.30187889 85036
Epoch: 16. Sept. 2025 • Age: 26 hours

Aktueller Status

Höhe 491.4 km
Geschwindigkeit 7.62 km/s
Subsatellitenpunkt -45.70°S, 13.32°W
Startdatum 19. März 2024
Alter 1.4 years
Typ internet

Technische Details

Klassifizierung Payload
Masse 730.00 kg
Trockenmasse 700.00 kg
Gesamtmasse 730.00 kg
Länge 0.30 m
Durchmesser 4.10 m
Spannweite 29.00 m
Form Box + pan
Hersteller SPXS
Bus-Typ Starlink V2M
Phasenstatus In Orbit
Besitzer/Staat SPXS/US

Große Konstellationen

Loading constellations...